| time (UTC) | temp C | wind direction | speed KPH | gust KPH | rain 1hr cm | rain 24hr cm | rain mn cm | humidity % | barometer mb |
| 20260503231656 | 19 | 245 | 9.7 | 19.3 | 0.00 | 0.00 | 0.00 | 52 | 1003.8 |
| 20260503230655 | 18 | 238 | 11.3 | 19.3 | 0.00 | 0.00 | 0.00 | 52 | 1003.6 |
| 20260503225715 | 18 | 249 | 9.7 | 22.5 | 0.00 | 0.00 | 0.00 | 53 | 1003.8 |
| 20260503224655 | 19 | 229 | 12.9 | 19.3 | 0.00 | 0.00 | 0.00 | 53 | 1003.7 |
| 20260503223655 | 18 | 239 | 11.3 | 19.3 | 0.00 | 0.00 | 0.00 | 53 | 1003.9 |
| 20260503222656 | 18 | 243 | 14.5 | 20.9 | 0.00 | 0.00 | 0.00 | 52 | 1003.9 |
| 20260503221657 | 18 | 238 | 14.5 | 24.1 | 0.00 | 0.00 | 0.00 | 52 | 1003.9 |
| 20260503220655 | 18 | 214 | 8.0 | 20.9 | 0.00 | 0.00 | 0.00 | 52 | 1003.9 |
| 20260503215736 | 18 | 244 | 14.5 | 30.6 | 0.00 | 0.00 | 0.00 | 52 | 1003.8 |
| 20260503214655 | 18 | 229 | 9.7 | 16.1 | 0.00 | 0.00 | 0.00 | 52 | 1003.9 |
| 20260503213716 | 18 | 218 | 11.3 | 22.5 | 0.00 | 0.00 | 0.00 | 53 | 1004.0 |
| 20260503212655 | 18 | 238 | 12.9 | 20.9 | 0.00 | 0.00 | 0.00 | 53 | 1004.0 |
| 20260503211717 | 18 | 212 | 9.7 | 17.7 | 0.00 | 0.00 | 0.00 | 54 | 1004.4 |
| 20260503210655 | 18 | 217 | 9.7 | 22.5 | 0.00 | 0.00 | 0.00 | 54 | 1004.4 |
| 20260503205655 | 18 | 222 | 12.9 | 22.5 | 0.00 | 0.00 | 0.00 | 52 | 1004.3 |
| 20260503204655 | 18 | 209 | 14.5 | 25.7 | 0.00 | 0.00 | 0.00 | 54 | 1004.5 |
| 20260503203655 | 18 | 245 | 16.1 | 25.7 | 0.00 | 0.00 | 0.00 | 54 | 1004.6 |
| 20260503202655 | 18 | 214 | 11.3 | 22.5 | 0.00 | 0.00 | 0.00 | 54 | 1004.9 |
| 20260503201655 | 17 | 215 | 12.9 | 32.2 | 0.00 | 0.00 | 0.00 | 58 | 1005.1 |
| 20260503200656 | 17 | 209 | 12.9 | 20.9 | 0.00 | 0.00 | 0.00 | 57 | 1005.1 |
| 20260503195655 | 17 | 224 | 14.5 | 22.5 | 0.00 | 0.00 | 0.00 | 59 | 1005.4 |
| 20260503194655 | 17 | 211 | 12.9 | 24.1 | 0.00 | 0.00 | 0.00 | 55 | 1005.7 |
| 20260503193658 | 17 | 238 | 16.1 | 30.6 | 0.00 | 0.00 | 0.00 | 57 | 1005.8 |
| 20260503192657 | 17 | 217 | 12.9 | 25.7 | 0.00 | 0.00 | 0.00 | 56 | 1005.9 |
| 20260503191658 | 17 | 216 | 19.3 | 30.6 | 0.00 | 0.00 | 0.00 | 53 | 1005.9 |
| 20260503190657 | 17 | 231 | 17.7 | 35.4 | 0.00 | 0.00 | 0.00 | 54 | 1006.0 |
| 20260503185657 | 17 | 217 | 17.7 | 29.0 | 0.00 | 0.00 | 0.00 | 53 | 1005.9 |
| 20260503184657 | 17 | 216 | 16.1 | 27.4 | 0.00 | 0.00 | 0.00 | 54 | 1006.1 |
| 20260503183657 | 17 | 198 | 17.7 | 33.8 | 0.00 | 0.00 | 0.00 | 56 | 1006.1 |
| 20260503182738 | 16 | 217 | 16.1 | 30.6 | 0.00 | 0.00 | 0.00 | 56 | 1006.0 |
| 20260503181657 | 16 | 210 | 17.7 | 35.4 | 0.00 | 0.00 | 0.00 | 59 | 1006.1 |
| 20260503180657 | 16 | 204 | 16.1 | 33.8 | 0.00 | 0.00 | 0.00 | 62 | 1006.5 |
| 20260503175718 | 15 | 206 | 12.9 | 25.7 | 0.00 | 0.00 | 0.00 | 63 | 1006.8 |
| 20260503174657 | 15 | 200 | 22.5 | 40.2 | 0.00 | 0.00 | 0.00 | 62 | 1006.9 |
| 20260503173658 | 15 | 198 | 17.7 | 29.0 | 0.00 | 0.00 | 0.00 | 62 | 1007.1 |
| 20260503172658 | 15 | 213 | 12.9 | 32.2 | 0.00 | 0.00 | 0.00 | 63 | 1007.3 |
| 20260503171657 | 15 | 222 | 12.9 | 35.4 | 0.00 | 0.00 | 0.00 | 63 | 1007.6 |
| 20260503170657 | 14 | 212 | 14.5 | 25.7 | 0.00 | 0.00 | 0.00 | 61 | 1007.7 |
| 20260503150656 | 11 | 224 | 11.3 | 24.1 | 0.00 | 0.00 | 0.00 | 72 | 1009.1 |
| 20260503130656 | 11 | 238 | 12.9 | 20.9 | 0.00 | 0.00 | 0.00 | 64 | 1010.3 |
| 20260503110656 | 8 | 239 | 8.0 | 14.5 | 0.00 | 0.00 | 0.00 | 64 | 1010.3 |
| 20260503080716 | 7 | 187 | 4.8 | 9.7 | 0.00 | 0.00 | 0.00 | 68 | 1011.4 |
| 20260503072657 | 7 | 199 | 3.2 | 4.8 | 0.00 | 0.00 | 0.00 | 68 | 1011.7 |
| 20260503071717 | 7 | 193 | 4.8 | 9.7 | 0.00 | 0.00 | 0.00 | 67 | 1011.8 |
| 20260503070655 | 7 | 196 | 4.8 | 16.1 | 0.00 | 0.00 | 0.00 | 67 | 1011.7 |
| 20260503054656 | 7 | 185 | 6.4 | 9.7 | 0.00 | 0.00 | 0.00 | 67 | 1012.4 |
| 20260503053657 | 7 | 191 | 3.2 | 8.0 | 0.00 | 0.00 | 0.00 | 66 | 1012.7 |
| 20260503052655 | 7 | 195 | 3.2 | 6.4 | 0.00 | 0.00 | 0.00 | 66 | 1012.5 |
| 20260503051738 | 7 | 194 | 4.8 | 11.3 | 0.00 | 0.00 | 0.00 | 65 | 1012.6 |
| 20260503050655 | 7 | 192 | 3.2 | 6.4 | 0.00 | 0.00 | 0.00 | 65 | 1012.6 |
| 20260503045716 | 7 | 212 | 3.2 | 6.4 | 0.00 | 0.00 | 0.00 | 65 | 1012.7 |
| 20260503044656 | 7 | 190 | 3.2 | 8.0 | 0.00 | 0.00 | 0.00 | 65 | 1012.7 |
| 20260503043656 | 7 | 192 | 3.2 | 6.4 | 0.00 | 0.00 | 0.00 | 65 | 1012.7 |
| 20260503042656 | 7 | 194 | 3.2 | 6.4 | 0.00 | 0.00 | 0.00 | 64 | 1012.8 |
| 20260503041657 | 7 | 199 | 3.2 | 6.4 | 0.00 | 0.00 | 0.00 | 64 | 1012.9 |
| 20260503040656 | 7 | 199 | 3.2 | 6.4 | 0.00 | 0.00 | 0.00 | 64 | 1013.0 |
| 20260503035656 | 7 | 196 | 3.2 | 6.4 | 0.00 | 0.00 | 0.00 | 64 | 1013.1 |
| 20260503034657 | 7 | 200 | 3.2 | 6.4 | 0.00 | 0.00 | 0.00 | 63 | 1013.2 |
| 20260503033656 | 7 | 186 | 4.8 | 8.0 | 0.00 | 0.00 | 0.00 | 63 | 1013.1 |
| 20260503032657 | 7 | 179 | 4.8 | 9.7 | 0.00 | 0.00 | 0.00 | 63 | 1013.2 |
| 20260503031656 | 7 | 185 | 4.8 | 8.0 | 0.00 | 0.00 | 0.00 | 63 | 1013.3 |
| 20260503030656 | 7 | 195 | 3.2 | 4.8 | 0.00 | 0.00 | 0.00 | 63 | 1013.4 |
| 20260503025657 | 7 | 196 | 3.2 | 6.4 | 0.00 | 0.00 | 0.00 | 63 | 1013.4 |
| 20260503024656 | 7 | 207 | 4.8 | 6.4 | 0.00 | 0.00 | 0.00 | 62 | 1013.4 |
| 20260503023656 | 8 | 211 | 3.2 | 6.4 | 0.00 | 0.00 | 0.00 | 60 | 1013.4 |
| 20260503022657 | 8 | 214 | 3.2 | 4.8 | 0.00 | 0.00 | 0.00 | 60 | 1013.4 |
| 20260503021656 | 8 | 221 | 3.2 | 6.4 | 0.00 | 0.00 | 0.00 | 58 | 1013.6 |
| 20260503020656 | 9 | 226 | 4.8 | 6.4 | 0.00 | 0.00 | 0.00 | 57 | 1013.5 |
| 20260503015656 | 10 | 227 | 3.2 | 4.8 | 0.00 | 0.00 | 0.00 | 55 | 1013.5 |
| 20260503014736 | 10 | 228 | 4.8 | 6.4 | 0.00 | 0.00 | 0.00 | 56 | 1013.5 |
| 20260503013656 | 10 | 244 | 1.6 | 4.8 | 0.00 | 0.00 | 0.00 | 54 | 1013.4 |
| 20260503012655 | 10 | 244 | 1.6 | 3.2 | 0.00 | 0.00 | 0.00 | 54 | 1013.1 |
| 20260503011655 | 10 | 244 | 1.6 | 3.2 | 0.00 | 0.00 | 0.00 | 54 | 1013.1 |
| 20260503010716 | 10 | 244 | 3.2 | 6.4 | 0.00 | 0.00 | 0.00 | 53 | 1013.2 |
| 20260503005656 | 11 | 245 | 3.2 | 6.4 | 0.00 | 0.00 | 0.00 | 52 | 1013.2 |
| 20260503004655 | 11 | 246 | 4.8 | 8.0 | 0.00 | 0.00 | 0.00 | 50 | 1013.3 |
| 20260503003656 | 12 | 240 | 4.8 | 12.9 | 0.00 | 0.00 | 0.00 | 49 | 1013.2 |
| 20260503002656 | 12 | 242 | 6.4 | 11.3 | 0.00 | 0.00 | 0.00 | 48 | 1013.2 |
| 20260503001655 | 12 | 242 | 6.4 | 9.7 | 0.00 | 0.00 | 0.00 | 47 | 1013.2 |
| 20260503000655 | 12 | 245 | 6.4 | 12.9 | 0.00 | 0.00 | 0.00 | 47 | 1013.2 |
| 20260502235715 | 12 | 250 | 8.0 | 12.9 | 0.00 | 0.00 | 0.00 | 46 | 1013.3 |
| 20260502234716 | 13 | 248 | 4.8 | 9.7 | 0.00 | 0.00 | 0.00 | 47 | 1013.4 |
| 20260502233655 | 13 | 272 | 6.4 | 12.9 | 0.00 | 0.00 | 0.00 | 46 | 1013.4 |
| 20260502232655 | 12 | 243 | 6.4 | 12.9 | 0.00 | 0.00 | 0.00 | 47 | 1013.5 |